Location: Ash Shall?l al Awwal
(24.0167°N, 32.8667°E)
Time: 03:56:54
(UTC+00:00)

CZ-4B R/B - Pass Details

Date: 02 March 2021
Orbit: 388 x 455 km, 97.6° (Epoch: 12 April)

Event Time Altitude Azimuth Distance (km) Brightness Sun altitude
Rises 16:23:49 0° 351° (N) 2,286 5.1 -8.1°
Reaches altitude 10° 16:26:09 10° 332° (NNW) 1,435 4.3 -8.6°
Maximum altitude 16:28:22 19° 285° (WNW) 1,034 4.3 -9.1°
Drops below altitude 10° 16:30:37 10° 238° (WSW) 1,450 5.1 -9.6°
Sets 16:32:59 0° 220° (SW) 2,319 5.7 -10.2°
